Regional Weather Roundup
Issued by NWS Little Rock, AR

Home | Current Version | Previous Version | Text Only | Print | Product List | Glossary On
Versions: 1 2 3 4 5 6 7 8 9 10 11 12 13 14 15 16 17 18 19 20 21 22 23 24 25 26 27 28 29 30 31 32 33 34 35 36 37 38 39 40 41 42 43 44 45 46 47 48 49 50
000
ASUS44 KLZK 021305
RWRLZK

WEATHER ROUNDUP FOR ARKANSAS
NATIONAL WEATHER SERVICE LITTLE ROCK AR
700 AM CST MON MAR 02 2015

NOTE: "FAIR" INDICATES FEW OR NO CLOUDS BELOW 12,000 FEET WITH NO
SIGNIFICANT WEATHER AND/OR OBSTRUCTIONS TO VISIBILITY.

ARZ001-003-010-029-021400-
NORTHWEST ARKANSAS

CITY           SKY/WX    TMP DP  RH WIND       PRES   REMARKS
FAYETTEVILLE   CLOUDY    29  24  82 E10       30.41F WCI  20
FORT SMITH     CLOUDY    36  31  82 NE8       30.43R
HARRISON       CLOUDY    26  23  88 E7        30.45F WCI  18
BENTONVILLE    PTCLDY    27  19  74 E9        30.43R WCI  17
ROGERS         CLEAR     25  22  88 E13       30.42F WCI  14
SILOAM SPGS    CLOUDY    28  19  69 MISG      30.42R
HIGHFILL       CLOUDY    27  21  78 E10       30.41S WCI  17
SPRINGDALE     CLOUDY    28  23  80 E12G23    30.42F WCI  18
$$

ARZ004-005-016-021400-
NORTH CENTRAL ARKANSAS

CITY           SKY/WX    TMP DP  RH WIND       PRES   REMARKS
BATESVILLE     CLOUDY    32  23  69 NE12G17   30.50S WCI  23
FLIPPIN        PTCLDY    27  19  74 NE5       30.48F WCI  21
MTN HOME       PTCLDY    25  22  88 CALM      30.48S
$$

ARZ040-041-021400-
WEST CENTRAL ARKANSAS

CITY           SKY/WX    TMP DP  RH WIND       PRES   REMARKS
MENA           NOT AVBL
MOUNT IDA      CLOUDY    36  34  92 CALM      30.37R FOG
$$

ARZ009-017-025-026-028-021400-
NORTHEAST ARKANSAS

CITY           SKY/WX    TMP DP  RH WIND       PRES   REMARKS
JONESBORO      CLOUDY    30  25  81 NE16      30.52R WCI  19
NEWPORT        CLOUDY    32  27  82 NE16G25   30.51S WCI  21
WALNUT RIDGE   MOCLDY    30  21  69 NE13      30.53R WCI  20
BLYTHEVILLE    FAIR      31  25  78 NE18      30.50R WCI  19
$$

ARZ022-023-033-042-044-021400-
CENTRAL ARKANSAS

CITY           SKY/WX    TMP DP  RH WIND       PRES   REMARKS
LITTLE ROCK    CLOUDY    36  28  73 NE15      30.46S
N LITTLE ROCK    N/A     34  32  92 NE15      30.46S WCI  24
JACKSONVILLE   CLOUDY    35  29  80 NE13      30.46R WCI  26
SEARCY         CLOUDY    34  27  75 NE15      30.50R WCI  24
HOT SPRINGS    CLOUDY    36  33  89 E13G21    30.41R
RUSSELLVILLE   CLOUDY    36  29  75 E7        30.45R
$$

ARZ036-021400-
EAST ARKANSAS

CITY           SKY/WX    TMP DP  RH WIND       PRES   REMARKS
WEST MEMPHIS   CLOUDY    33  29  85 NE10      30.46F WCI  25
$$

ARZ050-053-066-070-073-021400-
SOUTHWEST ARKANSAS

CITY           SKY/WX    TMP DP  RH WIND       PRES   REMARKS
ARKADELPHIA    LGT RAIN  37  36  96 NE7       30.43R FOG
TEXARKANA      LGT RAIN  38  37  97 NE8       30.38R FOG
EL DORADO      CLOUDY    39  37  92 N9        30.38R
DE QUEEN       LGT RAIN  39  37  92 E7        30.38R FOG
$$

ARZ056-057-069-021400-
SOUTHEAST ARKANSAS

CITY           SKY/WX    TMP DP  RH WIND       PRES   REMARKS
PINE BLUFF     LGT RAIN  35  31  85 NE20G25   30.42F WCI  24
STUTTGART      CLOUDY    34  28  80 NE15      30.45R WCI  24
MONTICELLO     HVY RAIN  37  35  92 NE14G21   30.40R FOG

$$




USA.gov is the U.S. government's official web portal to all federal, state and local government web resources and services.